Regional Weather Roundup
Issued by NWS

Home | Current Version | Previous Version | Graphics & Text | Print | Product List | Glossary On
Versions: 1 2 3 4 5 6 7 8 9 10 11 12 13 14 15 16 17 18 19 20 21 22 23 24 25 26 27 28 29 30 31 32 33 34 35 36 37 38 39 40 41 42 43 44 45 46 47 48 49 50
000
ASUS43 KOAX 261610
RWRNE

WEATHER ROUNDUP FOR NEBRASKA
NATIONAL WEATHER SERVICE OMAHA NE
1100 AM CDT SAT JUL 26 2014

NOTES: SATELLITE DATA IS BEING USED TO AUGMENT CLOUD COVER ABOVE
       12000 FEET.
       "FAIR" INDICATES FEW OR NO CLOUDS BELOW 12,000 FEET WITH NO
       SIGNIFICANT WEATHER AND/OR OBSTRUCTIONS TO VISIBILITY.

  * THESE STATIONS DO NOT REPORT WEATHER SUCH AS RAIN...SNOW OR FOG.

NEZ001>004-019>022-054>056-261700-
NEBRASKA PANHANDLE

CITY           SKY/WX    TMP DP  RH WIND       PRES   REMARKS
SCOTTSBLUFF    MOSUNNY   78  50  37 W9        30.09S
ALLIANCE       MOSUNNY   80  51  36 N20       30.06S
CHADRON        SUNNY     77  43  29 N13       30.08R
KIMBALL        PTSUNNY   73  43  34 N10       30.12S
SIDNEY         MOSUNNY   82  48  30 N21G29    30.09R
$$

NEZ057>060-069>072-079>082-261700-
SOUTHWEST NEBRASKA

CITY           SKY/WX    TMP DP  RH WIND       PRES   REMARKS
NORTH PLATTE   SUNNY     84  62  47 NW14      29.92S
IMPERIAL       SUNNY     85  57  38 N14       29.99S
LEXINGTON      SUNNY     87  72  59 S8        29.89F HX  93
MCCOOK         SUNNY     89  60  37 NW13      29.93R
OGALLALA       SUNNY     82  53  36 N15G22    29.99S
$$

NEZ005>010-023>029-035>040-094-261700-
NORTH CENTRAL NEBRASKA

CITY           SKY/WX    TMP DP  RH WIND       PRES   REMARKS
VALENTINE      CLOUDY    74  67  78 NW20G30   29.95R
AINSWORTH      PTSUNNY   78  67  68 N21G30    29.93R
BROKEN BOW     SUNNY     88  69  53 W8        29.89R HX  92
O`NEILL        SUNNY     86  70  57 S9        29.87R HX  91
ORD            CLOUDY    82  74  76 SE14      29.85S
THEDFORD       SUNNY     83  61  47 NW18      29.94R
$$

NEZ041-046>049-061>064-073>077-083>087-261700-
SOUTH CENTRAL NEBRASKA

CITY           SKY/WX    TMP DP  RH WIND       PRES   REMARKS
GRAND ISLAND   CLOUDY    81  74  79 S6        29.87R
AURORA         CLOUDY    83  79  86 SE7       29.86S HX  94
HASTINGS       CLOUDY    81  72  74 S7        29.87F
HEBRON         MOSUNNY   85  71  63 S5        29.83S HX  90
HOLDREGE       SUNNY     84  72  67 S6        29.89F HX  90
KEARNEY *      PTSUNNY   84  73  70 SE13      29.88F HX  91
YORK           CLOUDY    82  79  89 E6        29.86R HX  93
$$

NEZ011>018-030>034-042>045-261700-
NORTHEAST NEBRASKA

CITY           SKY/WX    TMP DP  RH WIND       PRES   REMARKS
NORFOLK        MOSUNNY   83  70  64 SE14      29.84R
ALBION         SUNNY     81  71  71 SE9       29.84F
BLAIR          MOSUNNY   80  71  74 E9G17     29.84F
COLUMBUS *     MOSUNNY   82  72  69 E7        29.83F
FREMONT        SUNNY     82  72  70 E14G20    29.83F
WAYNE          PTSUNNY   82  73  74 SE8       29.87R
$$

NEZ050>053-065>068-078-088>093-261700-
SOUTHEAST NEBRASKA

CITY           SKY/WX    TMP DP  RH WIND       PRES   REMARKS
LINCOLN        PTSUNNY   84  74  71 E7        29.84R HX  91
OMAHA EPPLEY   MOSUNNY   83  71  67 SE12      29.84F
BEATRICE       CLOUDY    84  73  70 CALM      29.81S HX  90
FALLS CITY     CLOUDY    85  70  60 W8        29.80F
NEBRASKA CITY  PTSUNNY   79  76  92 N6        29.84R
PLATTSMOUTH    PTSUNNY   81  73  76 NE9       29.84F
$$

NEZ044-045-051>053-067-261700-
OMAHA AREA

CITY           SKY/WX    TMP DP  RH WIND       PRES   REMARKS
OMAHA EPPLEY   MOSUNNY   83  71  67 SE12      29.84F
BLAIR          MOSUNNY   80  71  74 E9G17     29.84F
FREMONT        SUNNY     82  72  70 E14G20    29.83F
MILLARD        MOSUNNY   81  73  76 E6        29.84S
OFFUTT AFB     MOSUNNY   82  77  84 E8        29.83F
PLATTSMOUTH    PTSUNNY   81  73  76 NE9       29.84F
WAHOO          FAIR      83  73  72 E14       29.82F
$$



USA.gov is the U.S. government's official web portal to all federal, state and local government web resources and services.